Weather History for Fairbanks, AK

Change the Weather History Date:

Thursday, October 18, 2012

  Actual Average Record
Temperature  
Mean Temperature 16 °F 23 °F  
Max Temperature 22 °F 30 °F 63 °F (1925)
Min Temperature 10 °F 15 °F -15 °F (1915)
Degree Days  
Heating Degree Days 49 42  
Month to date heating degree days 612 634  
Since 1 July heating degree days 1586 1628  
Cooling Degree Days 0 0  
Month to date cooling degree days 0 0  
Year to date cooling degree days 34 61  
Moisture  
Dew Point 15 °F    
Average Humidity 85    
Maximum Humidity 93    
Minimum Humidity 69    
Precipitation  
Precipitation T in 0.03 in 0.25 in (1982)
Month to date precipitation 1.18 0.51  
Year to date precipitation 8.94 9.18  
Snow  
Snow 0.40 in 0.40 in 17.00 in (2005)
Month to date snowfall 4.2 5.4  
Since 1 July snowfall 4.2 7.2  
Since 1 September snowfall 4.2 7.2  
Snow Depth 3.00 in    
Sea Level Pressure  
Sea Level Pressure 30.03 in    
Wind  
Wind Speed 0 mph (ESE)    
Max Wind Speed 4 mph    
Max Gust Speed -    
Visibility 9 miles    
Events Snow    
T = Trace of Precipitation, MM = Missing Value Source: NWS Daily Summary

Daily Weather History Graph

Daily Weather History Graph

Search for Another Location

Airport:

Trip Planner

Search our weather history database for the weather conditions in past years. The results will help you decide how hot, cold, wet, or windy it might be!

Date:

Astronomy

Oct. 18, 2012 Rise Set
Actual Time 8:55 AM AKDT 6:16 PM AKDT
Civil Twilight 8:04 AM AKDT 7:06 PM AKDT
Nautical Twilight 7:07 AM AKDT 8:03 PM AKDT
Astronomical Twilight 6:10 AM AKDT 9:00 PM AKDT
Moon 2:28 PM AKDT (10/18) 7:19 PM AKDT (10/18)
Length of Visible Light 11h 02m
Length of Day
9h 20m
Waxing Crescent, 15% of the Moon is Illuminated
Oct 18
Waxing Crescent
Oct 21
First Quarter
Oct 29
Full
Nov 6
Last Quarter
Nov 13
New

Hourly Weather History & Observations

Time (AKDT) Temp. Windchill Dew Point Humidity Pressure Visibility Wind Dir Wind Speed Gust Speed Precip Events Conditions
12:53 AM 19.9 °F - 16.0 °F 85% 29.94 in 10.0 mi Calm Calm - N/A   Overcast
1:53 AM 19.0 °F - 16.0 °F 88% 29.94 in 10.0 mi Calm Calm - N/A   Overcast
2:53 AM 19.0 °F - 16.0 °F 88% 29.95 in 8.0 mi Calm Calm - 0.00 in Snow Light Snow
3:53 AM 19.0 °F - 16.0 °F 88% 29.95 in 5.0 mi Calm Calm - 0.00 in Snow Light Snow
4:53 AM 19.0 °F - 16.0 °F 88% 29.96 in 8.0 mi Calm Calm - 0.00 in Snow Light Snow
5:53 AM 19.0 °F - 16.0 °F 88% 29.98 in 9.0 mi Calm Calm - 0.00 in Snow Light Snow
6:53 AM 19.0 °F - 16.0 °F 88% 29.99 in 7.0 mi Calm Calm - 0.00 in Snow Light Snow
7:53 AM 18.0 °F - 16.0 °F 92% 30.00 in 5.0 mi Calm Calm - 0.00 in Snow Light Snow
8:10 AM 17.6 °F - 15.8 °F 93% 29.97 in 2.5 mi Calm Calm - 0.00 in Snow Light Snow
8:29 AM 17.6 °F 12.3 °F 14.0 °F 86% 29.97 in 3.0 mi ENE 3.5 mph - 0.01 in Snow Light Snow
8:53 AM 15.1 °F 9.4 °F 12.9 °F 91% 30.00 in 6.0 mi NE 3.5 mph - 0.01 in Snow Light Snow
9:53 AM 12.0 °F - 10.0 °F 92% 30.02 in 10.0 mi Calm Calm - 0.00 in Snow Light Snow
10:53 AM 10.0 °F - 8.1 °F 92% 30.04 in 10.0 mi Calm Calm - 0.00 in   Scattered Clouds
11:53 AM 18.0 °F - 14.0 °F 84% 30.05 in 10.0 mi Calm Calm - N/A   Scattered Clouds
12:53 PM 19.9 °F - 14.0 °F 78% 30.05 in 10.0 mi Calm Calm - N/A   Mostly Cloudy
1:53 PM 19.9 °F - 14.0 °F 78% 30.06 in 10.0 mi Calm Calm - N/A   Mostly Cloudy
2:53 PM 19.9 °F - 14.0 °F 78% 30.06 in 10.0 mi Calm Calm - N/A   Mostly Cloudy
3:53 PM 21.0 °F - 15.1 °F 78% 30.06 in 10.0 mi Calm Calm - N/A   Mostly Cloudy
4:53 PM 19.0 °F - 14.0 °F 81% 30.08 in 10.0 mi Calm Calm - N/A   Mostly Cloudy
5:53 PM 18.0 °F - 14.0 °F 84% 30.08 in 10.0 mi Calm Calm - N/A   Mostly Cloudy
6:53 PM 19.9 °F - 15.1 °F 81% 30.08 in 10.0 mi Calm Calm - N/A   Mostly Cloudy
7:53 PM 19.9 °F - 16.0 °F 85% 30.08 in 10.0 mi Calm Calm - 0.00 in Snow Light Snow
8:53 PM 19.9 °F 14.9 °F 17.1 °F 89% 30.09 in 10.0 mi WSW 3.5 mph - 0.00 in   Overcast
9:53 PM 21.0 °F - 17.1 °F 85% 30.10 in 10.0 mi Calm Calm - N/A   Overcast
10:53 PM 19.9 °F - 17.1 °F 89% 30.11 in 10.0 mi Calm Calm - N/A   Overcast
11:53 PM 18.0 °F 12.7 °F 16.0 °F 92% 30.11 in 10.0 mi SSW 3.5 mph - N/A   Overcast